| time (UTC) | temp F | wind direction | speed knots | gust knots | rain 1hr in | rain 24hr in | rain mn in | humidity % | barometer mb |
| 20260507051005 | 54 | 32 | 0.0 | 1.7 | 0.00 | 0.00 | 0.00 | 81 | 1021.5 |
| 20260507050008 | 54 | 32 | 0.0 | 1.7 | 0.00 | 0.00 | 0.00 | 81 | 1021.3 |
| 20260507045006 | 54 | 32 | 0.9 | 1.7 | 0.00 | 0.00 | 0.00 | 81 | 1021.4 |
| 20260507044005 | 55 | 32 | 0.0 | 0.9 | 0.00 | 0.00 | 0.00 | 82 | 1021.4 |
| 20260507043006 | 55 | 32 | 0.0 | 0.9 | 0.00 | 0.00 | 0.00 | 81 | 1021.4 |
| 20260507042006 | 55 | 32 | 0.0 | 2.6 | 0.00 | 0.00 | 0.00 | 81 | 1021.4 |
| 20260507041005 | 55 | 32 | 0.0 | 1.7 | 0.00 | 0.00 | 0.00 | 81 | 1021.4 |
| 20260507040007 | 55 | 32 | 0.0 | 1.7 | 0.00 | 0.00 | 0.00 | 82 | 1021.3 |
| 20260507035006 | 55 | 32 | 0.0 | 2.6 | 0.00 | 0.00 | 0.00 | 80 | 1021.3 |
| 20260507031006 | 56 | 36 | 0.0 | 0.9 | 0.00 | 0.00 | 0.00 | 80 | 1021.0 |
| 20260507030008 | 56 | 36 | 0.0 | 0.9 | 0.00 | 0.00 | 0.00 | 81 | 1020.9 |
| 20260507025006 | 56 | 36 | 0.9 | 3.5 | 0.00 | 0.00 | 0.00 | 79 | 1020.6 |
| 20260507024006 | 57 | 38 | 0.9 | 1.7 | 0.00 | 0.00 | 0.00 | 79 | 1020.6 |
| 20260507022005 | 57 | 38 | 0.0 | 2.6 | 0.00 | 0.00 | 0.00 | 79 | 1020.3 |
| 20260507021007 | 57 | 105 | 0.0 | 1.7 | 0.00 | 0.00 | 0.00 | 78 | 1020.5 |
| 20260507020008 | 58 | 165 | 0.9 | 6.1 | 0.00 | 0.00 | 0.00 | 78 | 1020.5 |
| 20260507015007 | 58 | 38 | 0.9 | 1.7 | 0.00 | 0.00 | 0.00 | 78 | 1020.6 |
| 20260507013006 | 58 | 38 | 0.9 | 3.5 | 0.00 | 0.00 | 0.00 | 76 | 1020.7 |
| 20260507012006 | 58 | 279 | 0.9 | 2.6 | 0.00 | 0.00 | 0.00 | 76 | 1020.6 |
| 20260507010008 | 58 | 194 | 0.9 | 4.3 | 0.00 | 0.00 | 0.00 | 75 | 1020.7 |
| 20260507005006 | 59 | 31 | 0.9 | 3.5 | 0.00 | 0.00 | 0.00 | 76 | 1020.7 |
| 20260507004005 | 59 | 154 | 0.9 | 2.6 | 0.00 | 0.00 | 0.00 | 76 | 1020.6 |
| 20260507003006 | 59 | 10 | 0.9 | 3.5 | 0.00 | 0.00 | 0.00 | 76 | 1020.6 |
| 20260507002005 | 59 | 175 | 0.9 | 4.3 | 0.00 | 0.00 | 0.00 | 78 | 1020.7 |
| 20260507001007 | 59 | 106 | 0.9 | 2.6 | 0.00 | 0.00 | 0.00 | 77 | 1020.7 |
| 20260507000009 | 59 | 189 | 0.9 | 2.6 | 0.00 | 0.00 | 0.00 | 77 | 1020.8 |
| 20260506235007 | 59 | 106 | 0.9 | 2.6 | 0.00 | 0.00 | 0.00 | 76 | 1020.7 |
| 20260506234006 | 59 | 173 | 0.9 | 3.5 | 0.00 | 0.00 | 0.00 | 76 | 1020.9 |
| 20260506233006 | 59 | 24 | 0.9 | 2.6 | 0.00 | 0.00 | 0.00 | 76 | 1020.9 |
| 20260506232006 | 60 | 278 | 0.9 | 3.5 | 0.00 | 0.00 | 0.00 | 76 | 1020.8 |
| 20260506231005 | 59 | 337 | 0.9 | 1.7 | 0.00 | 0.00 | 0.00 | 76 | 1020.7 |
| 20260506222006 | 59 | 207 | 1.7 | 3.5 | 0.00 | 0.00 | 0.00 | 76 | 1021.0 |
| 20260506221006 | 60 | 36 | 1.7 | 2.6 | 0.00 | 0.00 | 0.00 | 76 | 1021.2 |
| 20260506220008 | 60 | 273 | 1.7 | 7.0 | 0.00 | 0.00 | 0.00 | 74 | 1021.1 |
| 20260506214005 | 60 | 123 | 1.7 | 4.3 | 0.00 | 0.00 | 0.00 | 75 | 1021.1 |
| 20260506213003 | 59 | 221 | 1.7 | 4.3 | 0.00 | 0.00 | 0.00 | 75 | 1021.0 |
| 20260506212004 | 59 | 216 | 0.9 | 2.6 | 0.00 | 0.00 | 0.00 | 76 | 1021.1 |
| 20260506211005 | 59 | 194 | 0.9 | 3.5 | 0.00 | 0.00 | 0.00 | 78 | 1021.0 |
| 20260506210007 | 58 | 208 | 1.7 | 3.5 | 0.00 | 0.00 | 0.00 | 77 | 1021.1 |
| 20260506205005 | 58 | 327 | 1.7 | 5.2 | 0.00 | 0.00 | 0.00 | 77 | 1021.1 |
| 20260506204005 | 58 | 39 | 0.9 | 2.6 | 0.00 | 0.00 | 0.00 | 78 | 1021.0 |
| 20260506203005 | 58 | 225 | 1.7 | 2.6 | 0.00 | 0.00 | 0.00 | 78 | 1021.0 |
| 20260506202004 | 58 | 310 | 1.7 | 2.6 | 0.00 | 0.00 | 0.00 | 78 | 1020.9 |
| 20260506201004 | 58 | 208 | 1.7 | 4.3 | 0.00 | 0.00 | 0.00 | 77 | 1020.9 |
| 20260506195005 | 58 | 188 | 1.7 | 3.5 | 0.00 | 0.00 | 0.00 | 77 | 1020.8 |
| 20260506194005 | 58 | 238 | 1.7 | 3.5 | 0.00 | 0.00 | 0.00 | 77 | 1020.8 |
| 20260506193006 | 58 | 109 | 0.9 | 3.5 | 0.00 | 0.00 | 0.00 | 77 | 1020.9 |
| 20260506192004 | 58 | 25 | 0.9 | 2.6 | 0.00 | 0.00 | 0.00 | 76 | 1020.8 |
| 20260506184005 | 58 | 33 | 0.9 | 4.3 | 0.00 | 0.00 | 0.00 | 78 | 1020.7 |
| 20260506183005 | 58 | 284 | 1.7 | 4.3 | 0.00 | 0.00 | 0.00 | 77 | 1020.7 |
| 20260506182005 | 58 | 260 | 1.7 | 8.7 | 0.00 | 0.00 | 0.00 | 77 | 1020.7 |
| 20260506181005 | 58 | 141 | 1.7 | 4.3 | 0.00 | 0.00 | 0.00 | 77 | 1020.5 |
| 20260506180007 | 58 | 219 | 0.9 | 2.6 | 0.00 | 0.00 | 0.00 | 77 | 1020.3 |
| 20260506175004 | 58 | 357 | 1.7 | 3.5 | 0.00 | 0.00 | 0.00 | 77 | 1020.3 |
| 20260506174005 | 57 | 244 | 1.7 | 5.2 | 0.00 | 0.00 | 0.00 | 79 | 1020.4 |
| 20260506173005 | 57 | 29 | 1.7 | 3.5 | 0.00 | 0.00 | 0.00 | 77 | 1020.2 |
| 20260506172004 | 57 | 102 | 0.9 | 4.3 | 0.00 | 0.00 | 0.00 | 80 | 1020.2 |
| 20260506171005 | 57 | 26 | 0.9 | 2.6 | 0.00 | 0.00 | 0.00 | 80 | 1020.3 |
| 20260506170008 | 56 | 26 | 0.9 | 2.6 | 0.00 | 0.00 | 0.00 | 80 | 1020.4 |
| 20260506165005 | 56 | 312 | 0.9 | 3.5 | 0.00 | 0.00 | 0.00 | 81 | 1020.3 |
| 20260506164004 | 56 | 188 | 0.9 | 3.5 | 0.00 | 0.00 | 0.00 | 81 | 1020.3 |
| 20260506163004 | 56 | 46 | 0.9 | 4.3 | 0.00 | 0.00 | 0.00 | 82 | 1020.2 |
| 20260506162004 | 56 | 244 | 0.9 | 3.5 | 0.00 | 0.00 | 0.00 | 82 | 1020.1 |
| 20260506161005 | 55 | 106 | 0.9 | 3.5 | 0.00 | 0.00 | 0.00 | 83 | 1020.0 |
| 20260506160008 | 55 | 27 | 0.9 | 2.6 | 0.00 | 0.00 | 0.00 | 83 | 1019.9 |
| 20260506155004 | 55 | 27 | 0.9 | 3.5 | 0.00 | 0.00 | 0.00 | 83 | 1019.9 |
| 20260506154006 | 54 | 10 | 0.0 | 3.5 | 0.00 | 0.00 | 0.00 | 85 | 1019.9 |
| 20260506153004 | 54 | 32 | 0.9 | 2.6 | 0.00 | 0.00 | 0.00 | 86 | 1019.9 |
| 20260506152005 | 54 | 32 | 0.9 | 3.5 | 0.00 | 0.00 | 0.00 | 87 | 1019.9 |
| 20260506151005 | 53 | 25 | 0.9 | 6.1 | 0.00 | 0.00 | 0.00 | 86 | 1020.1 |
| 20260506150007 | 53 | 183 | 0.9 | 2.6 | 0.00 | 0.00 | 0.00 | 88 | 1020.2 |
| 20260506145005 | 53 | 351 | 0.9 | 1.7 | 0.00 | 0.00 | 0.00 | 88 | 1019.8 |
| 20260506144005 | 53 | 346 | 0.9 | 1.7 | 0.00 | 0.00 | 0.00 | 88 | 1019.9 |
| 20260506143005 | 53 | 356 | 0.9 | 2.6 | 0.00 | 0.00 | 0.00 | 88 | 1019.9 |
| 20260506142006 | 53 | 356 | 0.9 | 1.7 | 0.00 | 0.00 | 0.00 | 88 | 1019.6 |
| 20260506141004 | 53 | 355 | 0.0 | 1.7 | 0.00 | 0.00 | 0.00 | 89 | 1019.4 |
| 20260506140006 | 52 | 348 | 0.0 | 1.7 | 0.00 | 0.00 | 0.00 | 89 | 1019.5 |
| 20260506135004 | 52 | 348 | 0.0 | 1.7 | 0.00 | 0.00 | 0.00 | 90 | 1019.5 |
| 20260506134003 | 52 | 348 | 0.9 | 1.7 | 0.00 | 0.00 | 0.00 | 89 | 1019.5 |
| 20260506133004 | 52 | 334 | 0.0 | 1.7 | 0.00 | 0.00 | 0.00 | 90 | 1019.4 |
| 20260506132003 | 52 | 287 | 0.0 | 3.5 | 0.00 | 0.00 | 0.00 | 90 | 1019.4 |
| 20260506131003 | 52 | 300 | 0.0 | 2.6 | 0.00 | 0.00 | 0.00 | 90 | 1019.4 |
| 20260506130006 | 52 | 23 | 0.0 | 1.7 | 0.00 | 0.00 | 0.00 | 90 | 1019.3 |
| 20260506125004 | 52 | 298 | 0.0 | 1.7 | 0.00 | 0.00 | 0.00 | 90 | 1019.1 |
| 20260506124004 | 52 | 248 | 0.9 | 4.3 | 0.00 | 0.00 | 0.00 | 90 | 1019.1 |
| 20260506123004 | 52 | 41 | 0.0 | 1.7 | 0.00 | 0.00 | 0.00 | 90 | 1019.1 |
| 20260506122004 | 52 | 41 | 0.0 | 0.9 | 0.00 | 0.00 | 0.00 | 90 | 1019.0 |
| 20260506121004 | 52 | 41 | 0.9 | 3.5 | 0.00 | 0.00 | 0.00 | 90 | 1019.0 |
| 20260506120005 | 52 | 24 | 0.9 | 2.6 | 0.00 | 0.00 | 0.00 | 90 | 1019.0 |
| 20260506115005 | 52 | 237 | 0.0 | 2.6 | 0.00 | 0.00 | 0.00 | 90 | 1018.9 |
| 20260506114004 | 52 | 40 | 0.0 | 1.7 | 0.00 | 0.00 | 0.00 | 90 | 1018.8 |
| 20260506113004 | 52 | 40 | 0.0 | 1.7 | 0.00 | 0.00 | 0.00 | 91 | 1018.7 |
| 20260506112003 | 52 | 40 | 0.0 | 1.7 | 0.00 | 0.00 | 0.00 | 91 | 1018.7 |
| 20260506111004 | 52 | 40 | 0.0 | 0.9 | 0.00 | 0.00 | 0.00 | 91 | 1018.8 |
| 20260506110005 | 52 | 40 | 0.0 | 0.9 | 0.00 | 0.00 | 0.00 | 91 | 1018.7 |
| 20260506105003 | 52 | 40 | 0.0 | 1.7 | 0.00 | 0.00 | 0.00 | 91 | 1018.6 |
| 20260506104004 | 52 | 40 | 0.0 | 3.5 | 0.00 | 0.00 | 0.00 | 91 | 1018.5 |
| 20260506103003 | 52 | 38 | 0.0 | 0.9 | 0.00 | 0.00 | 0.00 | 91 | 1018.5 |
| 20260506102004 | 52 | 38 | 0.0 | 2.6 | 0.00 | 0.00 | 0.00 | 91 | 1018.5 |
| 20260506101004 | 52 | 38 | 0.0 | 0.9 | 0.00 | 0.00 | 0.00 | 91 | 1018.4 |
| 20260506100006 | 52 | 38 | 0.9 | 2.6 | 0.00 | 0.00 | 0.00 | 92 | 1018.3 |
| 20260506095004 | 52 | 38 | 0.0 | 0.9 | 0.00 | 0.00 | 0.00 | 92 | 1018.2 |
| 20260506094004 | 52 | 38 | 0.0 | 0.9 | 0.00 | 0.00 | 0.00 | 92 | 1018.2 |
| 20260506092004 | 52 | 38 | 0.0 | 0.9 | 0.00 | 0.00 | 0.00 | 93 | 1018.1 |
| 20260506091003 | 52 | 38 | 0.0 | 1.7 | 0.00 | 0.00 | 0.00 | 94 | 1018.0 |
| 20260506090006 | 52 | 38 | 0.0 | 0.0 | 0.00 | 0.00 | 0.00 | 95 | 1018.1 |
| 20260506085004 | 52 | 38 | 0.0 | 0.9 | 0.00 | 0.00 | 0.00 | 95 | 1018.0 |
| 20260506084003 | 52 | 38 | 0.0 | 0.0 | 0.00 | 0.00 | 0.00 | 95 | 1018.0 |
| 20260506083004 | 52 | 38 | 0.0 | 0.0 | 0.00 | 0.00 | 0.00 | 95 | 1017.8 |
| 20260506082003 | 51 | 38 | 0.0 | 0.0 | 0.00 | 0.00 | 0.00 | 95 | 1017.8 |
| 20260506081004 | 51 | 38 | 0.0 | 0.9 | 0.00 | 0.00 | 0.00 | 96 | 1017.7 |
| 20260506073008 | 50 | 38 | 0.0 | 0.0 | 0.00 | 0.00 | 0.00 | 94 | 1017.4 |
| 20260506072007 | 50 | 38 | 0.0 | 0.0 | 0.00 | 0.00 | 0.00 | 94 | 1017.4 |
| 20260506071007 | 50 | 38 | 0.0 | 0.0 | 0.00 | 0.00 | 0.00 | 94 | 1017.2 |
| 20260506062006 | 51 | 38 | 0.0 | 0.0 | 0.00 | 0.00 | 0.00 | 93 | 1016.8 |
| 20260506061006 | 52 | 38 | 0.0 | 0.0 | 0.00 | 0.00 | 0.00 | 92 | 1016.7 |